Tracking 35275 objects as of 9-Sep-2026
HD Live streaming from Space Station
objects crossing your sky now

STARLINK-33867

Track STARLINK-33867 now!
10-day predictions
STARLINK-33867 is classified as:


NORAD ID: 63795
Int'l Code: 2025-091W
Launch date: May 2, 2025
Source: United States (US)
Launch site: AIR FORCE EASTERN TEST RANGE (AFETR)
Your satellite tracking list
Your tracking list is empty




NASA's NSSDC Master Catalog

Two Line Element Set (TLE):
1 63795U 25091W   26251.00944977  .00023491  00000-0  85999-3 0  9995
2 63795  42.9986 103.0469 0001040 266.8573  93.2160 15.27596895 76781
Source of the keplerian elements: AFSPC